New Bullards Bar Reservoir Weather Center

Moon Phase Calendar



New Bullards Bar Reservoir Water Level
Online Cameras

 


      

Current Conditions in Challenge-Brownsville
6/18/2024 8:08:08 PM

70°F
Feels Like 69
Clouds
Humidity
36%
Pressure
29.8"
Wind
2 mph (SE)
Dew Point
40°F
UV Index
0/10 (Low)
Visibility
6 mi

Hourly Forecast

Date & Time Tue, Jun 18
8:00 PM
Tue, Jun 18
9:00 PM
Tue, Jun 18
10:00 PM
Tue, Jun 18
11:00 PM
Wed, Jun 19
12:00 AM
Wed, Jun 19
1:00 AM
Wed, Jun 19
2:00 AM
Wed, Jun 19
3:00 AM
Wed, Jun 19
4:00 AM
Wed, Jun 19
5:00 AM
Wed, Jun 19
6:00 AM
Wed, Jun 19
7:00 AM
Wed, Jun 19
8:00 AM
Wed, Jun 19
9:00 AM
Wed, Jun 19
10:00 AM
Wed, Jun 19
11:00 AM
Wed, Jun 19
12:00 PM
Wed, Jun 19
1:00 PM
Wed, Jun 19
2:00 PM
Wed, Jun 19
3:00 PM
Wed, Jun 19
4:00 PM
Wed, Jun 19
5:00 PM
Wed, Jun 19
6:00 PM
Wed, Jun 19
7:00 PM
Wed, Jun 19
8:00 PM
Wed, Jun 19
9:00 PM
Wed, Jun 19
10:00 PM
Wed, Jun 19
11:00 PM
Thu, Jun 20
12:00 AM
Thu, Jun 20
1:00 AM
Thu, Jun 20
2:00 AM
Thu, Jun 20
3:00 AM
Thu, Jun 20
4:00 AM
Thu, Jun 20
5:00 AM
Thu, Jun 20
6:00 AM
Thu, Jun 20
7:00 AM
Thu, Jun 20
8:00 AM
Thu, Jun 20
9:00 AM
Thu, Jun 20
10:00 AM
Thu, Jun 20
11:00 AM
Thu, Jun 20
12:00 PM
Thu, Jun 20
1:00 PM
Thu, Jun 20
2:00 PM
Thu, Jun 20
3:00 PM
Thu, Jun 20
4:00 PM
Thu, Jun 20
5:00 PM
Thu, Jun 20
6:00 PM
Thu, Jun 20
7:00 PM
Condition
Clouds

Clouds

Clouds

Clouds

Clouds

Clouds

Clouds

Clouds

Clouds

Clouds

Clouds

Clouds

Clouds

Clouds

Clouds

Clouds

Clear

Clear

Clear

Clear

Clear

Clear

Clouds

Clouds

Clouds

Clouds

Clouds

Clouds

Clouds

Clouds

Clouds

Clouds

Clouds

Clouds

Clear

Clear

Clear

Clear

Clear

Clear

Clouds

Clouds

Clouds

Clouds

Clouds

Clouds

Clouds

Clouds
Temperature 71°F69°F66°F63°F59°F56°F56°F56°F56°F55°F55°F60°F70°F74°F77°F79°F81°F82°F83°F84°F84°F84°F82°F79°F69°F64°F62°F61°F61°F60°F60°F59°F59°F59°F58°F64°F73°F77°F80°F82°F83°F85°F86°F86°F87°F88°F87°F84°F
Feels Like 69°F67°F64°F60°F56°F52°F53°F52°F52°F51°F51°F56°F67°F72°F75°F79°F79°F80°F80°F81°F81°F81°F80°F79°F67°F62°F60°F59°F58°F57°F57°F57°F56°F56°F56°F61°F71°F75°F80°F80°F80°F82°F82°F82°F83°F84°F83°F82°F
Cloudiness 55%55%52%48%32%19%39%43%44%38%12%19%23%24%24%30%10%8%6%7%8%8%37%48%49%53%56%57%55%43%33%28%23%20%4%2%2%1%4%6%73%88%92%94%97%95%48%18%
Visibility 6 mi6 mi6 mi6 mi6 mi6 mi6 mi6 mi6 mi6 mi6 mi6 mi6 mi6 mi6 mi6 mi6 mi6 mi6 mi6 mi6 mi6 mi6 mi6 mi6 mi6 mi6 mi6 mi6 mi6 mi6 mi6 mi6 mi6 mi6 mi6 mi6 mi6 mi6 mi6 mi6 mi6 mi6 mi6 mi6 mi6 mi6 mi6 mi
Precipitation 0%0%0%0%0%0%0%0%0%0%0%0%0%0%0%0%0%0%0%0%0%0%0%0%0%0%0%0%0%0%0%0%0%0%0%0%0%0%0%0%0%0%0%0%0%0%0%0%
Humidity 32%29%28%27%25%23%22%22%21%20%20%23%17%14%13%13%13%13%13%13%14%14%15%19%31%31%33%34%34%34%34%33%32%32%33%34%23%20%19%18%18%16%15%15%14%14%14%19%
Dew Point 40°F36°F32°F29°F24°F18°F17°F17°F16°F14°F13°F21°F21°F21°F21°F23°F24°F25°F26°F27°F28°F29°F30°F32°F36°F32°F32°F32°F31°F31°F30°F29°F28°F28°F28°F33°F32°F32°F32°F33°F34°F33°F32°F32°F32°F32°F32°F37°F
Pressure 29.8"29.8"29.83"29.83"29.85"29.85"29.83"29.83"29.83"29.83"29.85"29.85"29.83"29.83"29.83"29.83"29.83"29.8"29.8"29.8"29.77"29.77"29.77"29.77"29.8"29.83"29.85"29.85"29.85"29.85"29.83"29.83"29.83"29.83"29.83"29.83"29.8"29.8"29.8"29.8"29.8"29.8"29.77"29.77"29.74"29.71"29.71"29.71"
Wind Speed 2 mph6 mph6.9 mph7.1 mph7.3 mph7.4 mph7.4 mph7.4 mph6.9 mph6.4 mph6.2 mph4.5 mph0.6 mph3.4 mph5.7 mph7.6 mph8.2 mph8.6 mph8.5 mph8 mph7.7 mph7.2 mph6.8 mph5.5 mph1.7 mph4.4 mph5.6 mph6 mph6.2 mph6.2 mph6.2 mph5.9 mph5.7 mph5.9 mph5.6 mph3.8 mph1.7 mph4.6 mph6.3 mph8.4 mph8.8 mph7.9 mph7.7 mph6.3 mph5.9 mph5.5 mph5 mph3.9 mph
Wind
Direction
143°
SE
64°
ENE
63°
ENE
60°
ENE
58°
ENE
57°
ENE
55°
NE
54°
NE
53°
NE
51°
NE
50°
NE
50°
NE
353°
N
236°
SW
232°
SW
237°
WSW
241°
WSW
242°
WSW
241°
WSW
241°
WSW
238°
WSW
236°
SW
232°
SW
229°
SW
192°
SSW
64°
ENE
59°
ENE
58°
ENE
58°
ENE
55°
NE
49°
NE
53°
NE
44°
NE
45°
NE
49°
NE
41°
NE
303°
WNW
255°
WSW
240°
WSW
238°
WSW
240°
WSW
244°
WSW
251°
WSW
246°
WSW
248°
WSW
247°
WSW
247°
WSW
239°
WSW

Daily Forecast

Date High Low Precip. Humidity
Today
Jun 18

Clouds
82 °F
53 °F
0%
11%
Wednesday
Jun 19

Clear
84 °F
55 °F
0%
13%
Thursday
Jun 20

Clouds
88 °F
58 °F
0%
16%
Friday
Jun 21

Clear
96 °F
64 °F
0%
16%
Saturday
Jun 22

Clear
99 °F
70 °F
0%
11%
Sunday
Jun 23

Clear
96 °F
70 °F
0%
13%
Monday
Jun 24

Clear
93 °F
67 °F
0%
13%
Tuesday
Jun 25

Clear
91 °F
64 °F
0%
13%
Wednesday
Jun 26

Clear
93 °F
65 °F
0%
13%
Thursday
Jun 27

Clear
90 °F
64 °F
0%
15%
Friday
Jun 28

Clear
89 °F
62 °F
0%
23%
Saturday
Jun 29

Clear
98 °F
66 °F
0%
16%
Sunday
Jun 30

Clear
100 °F
70 °F
0%
16%
Monday
Jul 1

Clear
102 °F
72 °F
0%
15%
Tuesday
Jul 2

Clouds
101 °F
73 °F
0%
16%
Wednesday
Jul 3

Clear
103 °F
74 °F
0%
11%

Temperature 8-14 Day Outlook



Precipitation 8-14 Day Outlook






About Us
Contact Us
Site Map
Search Site
Advertise With Us
   
NewBullardsBar.LakesOnline.com
THE NEW BULLARDS BAR RESERVOIR WEBSITE

Copyright 2024, Lakes Online
Privacy    |    Legal